Year,Month,Day,Hour,Minute,Value (Times are PST for temperature in C)
2007,07,16,00,00,18.20
2007,07,16,00,01,18.20
2007,07,16,00,02,18.20
2007,07,16,00,03,18.20
2007,07,16,00,04,18.10
2007,07,16,00,05,18.10
2007,07,16,00,06,18.10
2007,07,16,00,07,18.10
2007,07,16,00,08,18.10
2007,07,16,00,09,18.10
2007,07,16,00,10,18.10
2007,07,16,00,11,18.10
2007,07,16,00,12,18.10
2007,07,16,00,13,18.10
2007,07,16,00,14,18.10
2007,07,16,00,15,18.10
2007,07,16,00,16,18.10
2007,07,16,00,17,18.10
2007,07,16,00,18,18.10
2007,07,16,00,19,18.10
2007,07,16,00,20,18.00
2007,07,16,00,21,18.00
2007,07,16,00,22,18.00
2007,07,16,00,23,18.00
2007,07,16,00,24,18.00
2007,07,16,00,25,17.90
2007,07,16,00,26,17.90
2007,07,16,00,27,17.90
2007,07,16,00,28,17.90
2007,07,16,00,29,17.90
2007,07,16,00,30,17.90
2007,07,16,00,31,17.80
2007,07,16,00,32,17.80
2007,07,16,00,33,17.80
2007,07,16,00,34,17.80
2007,07,16,00,35,17.80
2007,07,16,00,36,17.80
2007,07,16,00,37,17.80
2007,07,16,00,38,17.80
2007,07,16,00,39,17.80
2007,07,16,00,40,17.80
2007,07,16,00,41,17.80
2007,07,16,00,42,17.80
2007,07,16,00,43,17.80
2007,07,16,00,44,17.70
2007,07,16,00,45,17.70
2007,07,16,00,46,17.70
2007,07,16,00,47,17.70
2007,07,16,00,48,17.80
2007,07,16,00,49,17.80
2007,07,16,00,50,17.80
2007,07,16,00,51,17.80
2007,07,16,00,52,17.80
2007,07,16,00,53,17.80
2007,07,16,00,54,17.80
2007,07,16,00,55,17.80
2007,07,16,00,56,17.80
2007,07,16,00,57,17.70
2007,07,16,00,58,17.70
2007,07,16,00,59,17.70
2007,07,16,01,00,17.70
2007,07,16,01,01,17.70
2007,07,16,01,02,17.70
2007,07,16,01,03,17.60
2007,07,16,01,04,17.60
2007,07,16,01,05,17.60
2007,07,16,01,06,17.60
2007,07,16,01,07,17.60
2007,07,16,01,08,17.60
2007,07,16,01,09,17.60
2007,07,16,01,10,17.60
2007,07,16,01,11,17.60
2007,07,16,01,12,17.50
2007,07,16,01,13,17.50
2007,07,16,01,14,17.50
2007,07,16,01,15,17.50
2007,07,16,01,16,17.50
2007,07,16,01,17,17.50
2007,07,16,01,18,17.50
2007,07,16,01,19,17.50
2007,07,16,01,20,17.50
2007,07,16,01,21,17.50
2007,07,16,01,22,17.50
2007,07,16,01,23,17.50
2007,07,16,01,24,17.50
2007,07,16,01,25,17.50
2007,07,16,01,26,17.50
2007,07,16,01,27,17.50
2007,07,16,01,28,17.50
2007,07,16,01,29,17.50
2007,07,16,01,30,17.50
2007,07,16,01,31,17.50
2007,07,16,01,32,17.50
2007,07,16,01,33,17.50
2007,07,16,01,34,17.50
2007,07,16,01,35,17.50
2007,07,16,01,36,17.50
2007,07,16,01,37,17.50
2007,07,16,01,38,17.50
2007,07,16,01,39,17.50
2007,07,16,01,40,17.40
2007,07,16,01,41,17.40
2007,07,16,01,42,17.50
2007,07,16,01,43,17.50
2007,07,16,01,44,17.50
2007,07,16,01,45,17.50
2007,07,16,01,46,17.50
2007,07,16,01,47,17.50
2007,07,16,01,48,17.40
2007,07,16,01,49,17.40
2007,07,16,01,50,17.40
2007,07,16,01,51,17.40
2007,07,16,01,52,17.40
2007,07,16,01,53,17.40
2007,07,16,01,54,17.50
2007,07,16,01,55,17.50
2007,07,16,01,56,17.50
2007,07,16,01,57,17.50
2007,07,16,01,58,17.50
2007,07,16,01,59,17.50
2007,07,16,02,00,17.60
2007,07,16,02,01,17.60
2007,07,16,02,02,17.60
2007,07,16,02,03,17.60
2007,07,16,02,04,17.60
2007,07,16,02,05,17.60
2007,07,16,02,06,17.60
2007,07,16,02,07,17.60
2007,07,16,02,08,17.60
2007,07,16,02,09,17.60
2007,07,16,02,10,17.60
2007,07,16,02,11,17.50
2007,07,16,02,12,17.50
2007,07,16,02,13,17.40
2007,07,16,02,14,17.40
2007,07,16,02,15,17.40
2007,07,16,02,16,17.40
2007,07,16,02,17,17.30
2007,07,16,02,18,17.30
2007,07,16,02,19,17.30
2007,07,16,02,20,17.20
2007,07,16,02,21,17.20
2007,07,16,02,22,17.20
2007,07,16,02,23,17.20
2007,07,16,02,24,17.10
2007,07,16,02,25,17.10
2007,07,16,02,26,17.10
2007,07,16,02,27,17.00
2007,07,16,02,28,17.00
2007,07,16,02,29,17.00
2007,07,16,02,30,17.00
2007,07,16,02,31,17.00
2007,07,16,02,32,16.90
2007,07,16,02,33,16.90
2007,07,16,02,34,16.90
2007,07,16,02,35,16.90
2007,07,16,02,36,16.90
2007,07,16,02,37,16.90
2007,07,16,02,38,16.90
2007,07,16,02,39,16.90
2007,07,16,02,40,16.90
2007,07,16,02,41,16.90
2007,07,16,02,42,16.90
2007,07,16,02,43,16.90
2007,07,16,02,44,16.80
2007,07,16,02,45,16.80
2007,07,16,02,46,16.80
2007,07,16,02,47,16.80
2007,07,16,02,48,16.80
2007,07,16,02,49,16.70
2007,07,16,02,50,16.70
2007,07,16,02,51,16.70
2007,07,16,02,52,16.70
2007,07,16,02,53,16.70
2007,07,16,02,54,16.70
2007,07,16,02,55,16.70
2007,07,16,02,56,16.60
2007,07,16,02,57,16.60
2007,07,16,02,58,16.60
2007,07,16,02,59,16.60
2007,07,16,03,00,16.60
2007,07,16,03,01,16.60
2007,07,16,03,02,16.60
2007,07,16,03,03,16.60
2007,07,16,03,04,16.50
2007,07,16,03,05,16.50
2007,07,16,03,06,16.50
2007,07,16,03,07,16.50
2007,07,16,03,08,16.50
2007,07,16,03,09,16.40
2007,07,16,03,10,16.40
2007,07,16,03,11,16.40
2007,07,16,03,12,16.40
2007,07,16,03,13,16.40
2007,07,16,03,14,16.40
2007,07,16,03,15,16.40
2007,07,16,03,16,16.40
2007,07,16,03,17,16.40
2007,07,16,03,18,16.40
2007,07,16,03,19,16.40
2007,07,16,03,20,16.40
2007,07,16,03,21,16.40
2007,07,16,03,22,16.40
2007,07,16,03,23,16.40
2007,07,16,03,24,16.40
2007,07,16,03,25,16.40
2007,07,16,03,26,16.40
2007,07,16,03,27,16.40
2007,07,16,03,28,16.40
2007,07,16,03,29,16.40
2007,07,16,03,30,16.40
2007,07,16,03,31,16.40
2007,07,16,03,32,16.40
2007,07,16,03,33,16.40
2007,07,16,03,34,16.40
2007,07,16,03,35,16.40
2007,07,16,03,36,16.40
2007,07,16,03,37,16.40
2007,07,16,03,38,16.40
2007,07,16,03,39,16.50
2007,07,16,03,40,16.50
2007,07,16,03,41,16.50
2007,07,16,03,42,16.60
2007,07,16,03,43,16.60
2007,07,16,03,44,16.70
2007,07,16,03,45,16.70
2007,07,16,03,46,16.70
2007,07,16,03,47,16.70
2007,07,16,03,48,16.70
2007,07,16,03,49,16.70
2007,07,16,03,50,16.70
2007,07,16,03,51,16.70
2007,07,16,03,52,16.70
2007,07,16,03,53,16.70
2007,07,16,03,54,16.70
2007,07,16,03,55,16.70
2007,07,16,03,56,16.70
2007,07,16,03,57,16.70
2007,07,16,03,58,16.70
2007,07,16,03,59,16.60
2007,07,16,04,00,16.60
2007,07,16,04,01,16.60
2007,07,16,04,02,16.60
2007,07,16,04,03,16.60
2007,07,16,04,04,16.50
2007,07,16,04,05,16.50
2007,07,16,04,06,16.50
2007,07,16,04,07,16.50
2007,07,16,04,08,16.40
2007,07,16,04,09,16.40
2007,07,16,04,10,16.40
2007,07,16,04,11,16.40
2007,07,16,04,12,16.40
2007,07,16,04,13,16.40
2007,07,16,04,14,16.40
2007,07,16,04,15,16.30
2007,07,16,04,16,16.30
2007,07,16,04,17,16.30
2007,07,16,04,18,16.30
2007,07,16,04,19,16.30
2007,07,16,04,20,16.30
2007,07,16,04,21,16.30
2007,07,16,04,22,16.30
2007,07,16,04,23,16.30
2007,07,16,04,24,16.30
2007,07,16,04,25,16.30
2007,07,16,04,26,16.30
2007,07,16,04,27,16.30
2007,07,16,04,28,16.30
2007,07,16,04,29,16.30
2007,07,16,04,30,16.30
2007,07,16,04,31,16.30
2007,07,16,04,32,16.30
2007,07,16,04,33,16.30
2007,07,16,04,34,16.30
2007,07,16,04,35,16.30
2007,07,16,04,36,16.30
2007,07,16,04,37,16.30
2007,07,16,04,38,16.30
2007,07,16,04,39,16.30
2007,07,16,04,40,16.30
2007,07,16,04,41,16.30
2007,07,16,04,42,16.30
2007,07,16,04,43,16.30
2007,07,16,04,44,16.30
2007,07,16,04,45,16.40
2007,07,16,04,46,16.40
2007,07,16,04,47,16.40
2007,07,16,04,48,16.40
2007,07,16,04,49,16.40
2007,07,16,04,50,16.40
2007,07,16,04,51,16.40
2007,07,16,04,52,16.40
2007,07,16,04,53,16.40
2007,07,16,04,54,16.40
2007,07,16,04,55,16.50
2007,07,16,04,56,16.40
2007,07,16,04,57,16.50
2007,07,16,04,58,16.50
2007,07,16,04,59,16.50
2007,07,16,05,00,16.50
2007,07,16,05,01,16.60
2007,07,16,05,02,16.60
2007,07,16,05,03,16.60
2007,07,16,05,04,16.60
2007,07,16,05,05,16.70
2007,07,16,05,06,16.70
2007,07,16,05,07,16.70
2007,07,16,05,08,16.70
2007,07,16,05,09,16.70
2007,07,16,05,10,16.80
2007,07,16,05,11,16.80
2007,07,16,05,12,16.80
2007,07,16,05,13,16.80
2007,07,16,05,14,16.80
2007,07,16,05,15,16.80
2007,07,16,05,16,16.80
2007,07,16,05,17,16.80
2007,07,16,05,18,16.70
2007,07,16,05,19,16.70
2007,07,16,05,20,16.70
2007,07,16,05,21,16.70
2007,07,16,05,22,16.70
2007,07,16,05,23,16.70
2007,07,16,05,24,16.70
2007,07,16,05,25,16.70
2007,07,16,05,26,16.70
2007,07,16,05,27,16.70
2007,07,16,05,28,16.70
2007,07,16,05,29,16.70
2007,07,16,05,30,16.70
2007,07,16,05,31,16.70
2007,07,16,05,32,16.70
2007,07,16,05,33,16.70
2007,07,16,05,34,16.70
2007,07,16,05,35,16.70
2007,07,16,05,36,16.70
2007,07,16,05,37,16.70
2007,07,16,05,38,16.70
2007,07,16,05,39,16.70
2007,07,16,05,40,16.70
2007,07,16,05,41,16.70
2007,07,16,05,42,16.70
2007,07,16,05,43,16.80
2007,07,16,05,44,16.80
2007,07,16,05,45,16.80
2007,07,16,05,46,16.80
2007,07,16,05,47,16.80
2007,07,16,05,48,16.80
2007,07,16,05,49,16.80
2007,07,16,05,50,16.70
2007,07,16,05,51,16.70
2007,07,16,05,52,16.70
2007,07,16,05,53,16.70
2007,07,16,05,54,16.70
2007,07,16,05,55,16.80
2007,07,16,05,56,16.80
2007,07,16,05,57,16.80
2007,07,16,05,58,16.80
2007,07,16,05,59,16.80
2007,07,16,06,00,16.80
2007,07,16,06,01,16.80
2007,07,16,06,02,16.80
2007,07,16,06,03,16.80
2007,07,16,06,04,16.80
2007,07,16,06,05,16.80
2007,07,16,06,06,16.80
2007,07,16,06,07,16.80
2007,07,16,06,08,16.90
2007,07,16,06,09,16.90
2007,07,16,06,10,16.90
2007,07,16,06,11,16.90
2007,07,16,06,12,16.90
2007,07,16,06,13,16.90
2007,07,16,06,14,17.00
2007,07,16,06,15,17.00
2007,07,16,06,16,17.00
2007,07,16,06,17,17.00
2007,07,16,06,18,17.10
2007,07,16,06,19,17.10
2007,07,16,06,20,17.10
2007,07,16,06,21,17.10
2007,07,16,06,22,17.10
2007,07,16,06,23,17.10
2007,07,16,06,24,17.10
2007,07,16,06,25,17.10
2007,07,16,06,26,17.10
2007,07,16,06,27,17.10
2007,07,16,06,28,17.10
2007,07,16,06,29,17.20
2007,07,16,06,30,17.20
2007,07,16,06,31,17.20
2007,07,16,06,32,17.20
2007,07,16,06,33,17.20
2007,07,16,06,34,17.20
2007,07,16,06,35,17.20
2007,07,16,06,36,17.20
2007,07,16,06,37,17.20
2007,07,16,06,38,17.20
2007,07,16,06,39,17.20
2007,07,16,06,40,17.20
2007,07,16,06,41,17.20
2007,07,16,06,42,17.20
2007,07,16,06,43,17.20
2007,07,16,06,44,17.20
2007,07,16,06,45,17.20
2007,07,16,06,46,17.20
2007,07,16,06,47,17.20
2007,07,16,06,48,17.20
2007,07,16,06,49,17.20
2007,07,16,06,50,17.20
2007,07,16,06,51,17.20
2007,07,16,06,52,17.20
2007,07,16,06,53,17.20
2007,07,16,06,54,17.30
2007,07,16,06,55,17.30
2007,07,16,06,56,17.30
2007,07,16,06,57,17.30
2007,07,16,06,58,17.30
2007,07,16,06,59,17.30
2007,07,16,07,00,17.30
2007,07,16,07,01,17.30
2007,07,16,07,02,17.30
2007,07,16,07,03,17.30
2007,07,16,07,04,17.30
2007,07,16,07,05,17.30
2007,07,16,07,06,17.30
2007,07,16,07,07,17.30
2007,07,16,07,08,17.40
2007,07,16,07,09,17.40
2007,07,16,07,10,17.40
2007,07,16,07,11,17.40
2007,07,16,07,12,17.50
2007,07,16,07,13,17.50
2007,07,16,07,14,17.50
2007,07,16,07,15,17.50
2007,07,16,07,16,17.50
2007,07,16,07,17,17.50
2007,07,16,07,18,17.50
2007,07,16,07,19,17.60
2007,07,16,07,20,17.60
2007,07,16,07,21,17.60
2007,07,16,07,22,17.60
2007,07,16,07,23,17.60
2007,07,16,07,24,17.70
2007,07,16,07,25,17.70
2007,07,16,07,26,17.70
2007,07,16,07,27,17.70
2007,07,16,07,28,17.70
2007,07,16,07,29,17.70
2007,07,16,07,30,17.80
2007,07,16,07,31,17.80
2007,07,16,07,32,17.80
2007,07,16,07,33,17.80
2007,07,16,07,34,17.80
2007,07,16,07,35,17.90
2007,07,16,07,36,17.90
2007,07,16,07,37,17.90
2007,07,16,07,38,17.90
2007,07,16,07,39,18.00
2007,07,16,07,40,18.00
2007,07,16,07,41,18.00
2007,07,16,07,42,18.10
2007,07,16,07,43,18.10
2007,07,16,07,44,18.10
2007,07,16,07,45,18.10
2007,07,16,07,46,18.10
2007,07,16,07,47,18.10
2007,07,16,07,48,18.10
2007,07,16,07,49,18.10
2007,07,16,07,50,18.10
2007,07,16,07,51,18.10
2007,07,16,07,52,18.20
2007,07,16,07,53,18.20
2007,07,16,07,54,18.30
2007,07,16,07,55,18.30
2007,07,16,07,56,18.30
2007,07,16,07,57,18.40
2007,07,16,07,58,18.40
2007,07,16,07,59,18.40
2007,07,16,08,00,18.40
2007,07,16,08,01,18.50
2007,07,16,08,02,18.50
2007,07,16,08,03,18.60
2007,07,16,08,04,18.60
2007,07,16,08,05,18.70
2007,07,16,08,06,18.70
2007,07,16,08,07,18.80
2007,07,16,08,08,18.80
2007,07,16,08,09,18.80
2007,07,16,08,10,18.80
2007,07,16,08,11,18.80
2007,07,16,08,12,18.90
2007,07,16,08,13,18.90
2007,07,16,08,14,18.90
2007,07,16,08,15,18.90
2007,07,16,08,16,19.00
2007,07,16,08,17,19.00
2007,07,16,08,18,19.00
2007,07,16,08,19,18.90
2007,07,16,08,20,18.90
2007,07,16,08,21,18.80
2007,07,16,08,22,18.80
2007,07,16,08,23,18.70
2007,07,16,08,24,18.70
2007,07,16,08,25,18.70
2007,07,16,08,26,18.60
2007,07,16,08,27,18.60
2007,07,16,08,28,18.60
2007,07,16,08,29,18.60
2007,07,16,08,30,18.60
2007,07,16,08,31,18.60
2007,07,16,08,32,18.60
2007,07,16,08,33,18.60
2007,07,16,08,34,18.60
2007,07,16,08,35,18.60
2007,07,16,08,36,18.60
2007,07,16,08,37,18.50
2007,07,16,08,38,18.50
2007,07,16,08,39,18.50
2007,07,16,08,40,18.50
2007,07,16,08,41,18.50
2007,07,16,08,42,18.50
2007,07,16,08,43,18.50
2007,07,16,08,44,18.50
2007,07,16,08,45,18.50
2007,07,16,08,46,18.50
2007,07,16,08,47,18.50
2007,07,16,08,48,18.50
2007,07,16,08,49,18.50
2007,07,16,08,50,18.40
2007,07,16,08,51,18.40
2007,07,16,08,52,18.40
2007,07,16,08,53,18.40
2007,07,16,08,54,18.50
2007,07,16,08,55,18.40
2007,07,16,08,56,18.40
2007,07,16,08,57,18.40
2007,07,16,08,58,18.50
2007,07,16,08,59,18.50
2007,07,16,09,00,18.50
2007,07,16,09,01,18.50
2007,07,16,09,02,18.50
2007,07,16,09,03,18.50
2007,07,16,09,04,18.60
2007,07,16,09,05,18.70
2007,07,16,09,06,18.70
2007,07,16,09,07,18.70
2007,07,16,09,08,18.70
2007,07,16,09,09,18.80
2007,07,16,09,10,18.80
2007,07,16,09,11,18.80
2007,07,16,09,12,18.90
2007,07,16,09,13,18.90
2007,07,16,09,14,18.90
2007,07,16,09,15,18.90
2007,07,16,09,16,18.90
2007,07,16,09,17,19.00
2007,07,16,09,18,19.00
2007,07,16,09,19,19.10
2007,07,16,09,20,19.10
2007,07,16,09,21,19.20
2007,07,16,09,22,19.30
2007,07,16,09,23,19.30
2007,07,16,09,24,19.40
2007,07,16,09,25,19.50
2007,07,16,09,26,19.50
2007,07,16,09,27,19.60
2007,07,16,09,28,19.60
2007,07,16,09,29,19.70
2007,07,16,09,30,19.70
2007,07,16,09,31,19.80
2007,07,16,09,32,19.80
2007,07,16,09,33,19.80
2007,07,16,09,34,19.90
2007,07,16,09,35,19.90
2007,07,16,09,36,19.90
2007,07,16,09,37,19.90
2007,07,16,09,38,20.00
2007,07,16,09,39,19.90
2007,07,16,09,40,19.90
2007,07,16,09,41,19.80
2007,07,16,09,42,19.80
2007,07,16,09,43,19.80
2007,07,16,09,44,19.80
2007,07,16,09,45,19.90
2007,07,16,09,46,19.90
2007,07,16,09,47,19.90
2007,07,16,09,48,19.90
2007,07,16,09,49,19.90
2007,07,16,09,50,19.90
2007,07,16,09,51,19.90
2007,07,16,09,52,20.00
2007,07,16,09,53,20.00
2007,07,16,09,54,20.10
2007,07,16,09,55,20.10
2007,07,16,09,56,20.20
2007,07,16,09,57,20.20
2007,07,16,09,58,20.30
2007,07,16,09,59,20.30
2007,07,16,10,00,20.40
2007,07,16,10,01,20.50
2007,07,16,10,02,20.60
2007,07,16,10,03,20.60
2007,07,16,10,04,20.60
2007,07,16,10,05,20.70
2007,07,16,10,06,20.70
2007,07,16,10,07,20.70
2007,07,16,10,08,20.80
2007,07,16,10,09,20.80
2007,07,16,10,10,20.90
2007,07,16,10,11,20.90
2007,07,16,10,12,20.90
2007,07,16,10,13,21.00
2007,07,16,10,14,21.10
2007,07,16,10,15,21.10
2007,07,16,10,16,21.10
2007,07,16,10,17,21.20
2007,07,16,10,18,21.20
2007,07,16,10,19,21.20
2007,07,16,10,20,21.20
2007,07,16,10,21,21.20
2007,07,16,10,22,21.20
2007,07,16,10,23,21.10
2007,07,16,10,24,21.00
2007,07,16,10,25,21.00
2007,07,16,10,26,20.90
2007,07,16,10,27,20.80
2007,07,16,10,28,20.70
2007,07,16,10,29,20.60
2007,07,16,10,30,20.60
2007,07,16,10,31,20.60
2007,07,16,10,32,20.60
2007,07,16,10,33,20.60
2007,07,16,10,34,20.70
2007,07,16,10,35,20.70
2007,07,16,10,36,20.70
2007,07,16,10,37,20.80
2007,07,16,10,38,20.80
2007,07,16,10,39,20.80
2007,07,16,10,40,20.70
2007,07,16,10,41,20.70
2007,07,16,10,42,20.70
2007,07,16,10,43,20.60
2007,07,16,10,44,20.60
2007,07,16,10,45,20.60
2007,07,16,10,46,20.70
2007,07,16,10,47,20.70
2007,07,16,10,48,20.70
2007,07,16,10,49,20.70
2007,07,16,10,50,20.70
2007,07,16,10,51,20.70
2007,07,16,10,52,20.80
2007,07,16,10,53,20.80
2007,07,16,10,54,20.80
2007,07,16,10,55,20.80
2007,07,16,10,56,20.80
2007,07,16,10,57,20.80
2007,07,16,10,58,20.80
2007,07,16,10,59,20.80
2007,07,16,11,00,20.80
2007,07,16,11,01,20.80
2007,07,16,11,02,20.80
2007,07,16,12,44,21.10
2007,07,16,12,45,21.10
2007,07,16,12,46,21.00
2007,07,16,12,47,21.00
2007,07,16,12,48,21.00
2007,07,16,12,49,21.00
2007,07,16,12,50,20.90
2007,07,16,12,51,20.80
2007,07,16,12,52,20.80
2007,07,16,12,53,20.70
2007,07,16,12,54,20.80
2007,07,16,12,55,20.80
2007,07,16,12,56,20.80
2007,07,16,12,57,20.80
2007,07,16,12,58,20.90
2007,07,16,12,59,21.00
2007,07,16,13,00,20.90
2007,07,16,13,01,20.80
2007,07,16,13,02,20.70
2007,07,16,13,03,20.80
2007,07,16,13,04,20.80
2007,07,16,13,05,20.80
2007,07,16,13,06,20.80
2007,07,16,13,07,20.80
2007,07,16,13,08,20.90
2007,07,16,13,09,21.00
2007,07,16,13,10,21.00
2007,07,16,13,11,21.00
2007,07,16,13,12,21.00
2007,07,16,13,13,21.10
2007,07,16,13,14,21.20
2007,07,16,13,15,21.40
2007,07,16,13,16,21.50
2007,07,16,13,17,21.60
2007,07,16,13,18,21.60
2007,07,16,13,19,21.50
2007,07,16,13,20,21.50
2007,07,16,13,21,21.40
2007,07,16,13,22,21.40
2007,07,16,13,23,21.40
2007,07,16,13,24,21.30
2007,07,16,13,25,21.20
2007,07,16,13,26,21.10
2007,07,16,13,27,21.10
2007,07,16,13,28,21.00
2007,07,16,13,29,20.90
2007,07,16,13,30,20.80
2007,07,16,13,31,20.70
2007,07,16,13,32,20.70
2007,07,16,13,33,20.70
2007,07,16,13,34,20.70
2007,07,16,13,35,20.60
2007,07,16,13,36,20.60
2007,07,16,13,37,20.60
2007,07,16,13,38,20.60
2007,07,16,13,39,20.70
2007,07,16,13,40,20.70
2007,07,16,13,41,20.60
2007,07,16,13,42,20.50
2007,07,16,13,43,20.50
2007,07,16,13,44,20.60
2007,07,16,13,45,20.70
2007,07,16,13,46,20.60
2007,07,16,13,47,20.60
2007,07,16,13,48,20.60
2007,07,16,13,49,20.50
2007,07,16,13,50,20.40
2007,07,16,13,51,20.40
2007,07,16,13,52,20.50
2007,07,16,13,53,20.60
2007,07,16,13,54,20.70
2007,07,16,13,55,20.70
2007,07,16,13,56,20.70
2007,07,16,13,57,20.60
2007,07,16,13,58,20.60
2007,07,16,13,59,20.70
2007,07,16,14,00,20.60
2007,07,16,14,01,20.60
2007,07,16,14,02,20.60
2007,07,16,14,03,20.50
2007,07,16,14,04,20.40
2007,07,16,14,05,20.40
2007,07,16,14,06,20.40
2007,07,16,14,07,20.50
2007,07,16,14,08,20.50
2007,07,16,14,09,20.50
2007,07,16,14,10,20.60
2007,07,16,14,11,20.60
2007,07,16,14,12,20.60
2007,07,16,14,13,20.50
2007,07,16,14,14,20.40
2007,07,16,14,15,20.40
2007,07,16,14,16,20.50
2007,07,16,14,17,20.60
2007,07,16,14,18,20.70
2007,07,16,14,19,20.70
2007,07,16,14,20,20.80
2007,07,16,14,21,20.90
2007,07,16,14,22,20.90
2007,07,16,14,23,21.00
2007,07,16,14,24,21.00
2007,07,16,14,25,21.10
2007,07,16,14,26,21.10
2007,07,16,14,27,21.10
2007,07,16,14,28,21.10
2007,07,16,14,29,21.20
2007,07,16,14,30,21.10
2007,07,16,14,31,21.10
2007,07,16,14,32,21.00
2007,07,16,14,33,20.90
2007,07,16,14,34,20.90
2007,07,16,14,35,21.00
2007,07,16,14,36,21.00
2007,07,16,14,37,21.10
2007,07,16,14,38,21.20
2007,07,16,14,39,21.20
2007,07,16,14,40,21.30
2007,07,16,14,41,21.40
2007,07,16,14,42,21.40
2007,07,16,14,43,21.40
2007,07,16,14,44,21.40
2007,07,16,14,45,21.40
2007,07,16,14,46,21.50
2007,07,16,14,47,21.60
2007,07,16,14,48,21.70
2007,07,16,14,49,21.80
2007,07,16,14,50,21.80
2007,07,16,14,51,21.80
2007,07,16,14,52,21.90
2007,07,16,14,53,22.00
2007,07,16,14,54,22.10
2007,07,16,14,55,22.20
2007,07,16,14,56,22.10
2007,07,16,14,57,22.10
2007,07,16,14,58,22.20
2007,07,16,14,59,22.30
2007,07,16,15,00,22.30
2007,07,16,15,01,22.30
2007,07,16,15,02,22.30
2007,07,16,15,03,22.40
2007,07,16,15,04,22.40
2007,07,16,15,05,22.40
2007,07,16,15,06,22.40
2007,07,16,15,07,22.50
2007,07,16,15,08,22.60
2007,07,16,15,09,22.50
2007,07,16,15,10,22.60
2007,07,16,15,11,22.70
2007,07,16,15,12,22.60
2007,07,16,15,13,22.50
2007,07,16,15,14,22.40
2007,07,16,15,15,22.50
2007,07,16,15,16,22.60
2007,07,16,15,17,22.70
2007,07,16,15,18,22.80
2007,07,16,15,19,23.00
2007,07,16,15,20,23.10
2007,07,16,15,21,23.30
2007,07,16,15,22,23.40
2007,07,16,15,23,23.60
2007,07,16,15,24,23.60
2007,07,16,15,25,23.70
2007,07,16,15,26,23.70
2007,07,16,15,27,23.60
2007,07,16,15,28,23.40
2007,07,16,15,29,23.00
2007,07,16,15,30,22.80
2007,07,16,15,31,22.70
2007,07,16,15,32,22.70
2007,07,16,15,33,22.70
2007,07,16,15,34,22.70
2007,07,16,15,35,22.70
2007,07,16,15,36,22.70
2007,07,16,15,37,22.70
2007,07,16,15,38,22.60
2007,07,16,15,39,22.60
2007,07,16,15,40,22.60
2007,07,16,15,41,22.70
2007,07,16,15,42,22.80
2007,07,16,15,43,22.90
2007,07,16,15,44,23.10
2007,07,16,15,45,23.30
2007,07,16,15,46,23.30
2007,07,16,15,47,23.20
2007,07,16,15,48,23.10
2007,07,16,15,49,23.10
2007,07,16,15,50,23.00
2007,07,16,15,51,22.90
2007,07,16,15,52,22.90
2007,07,16,15,53,22.70
2007,07,16,15,54,22.60
2007,07,16,15,55,22.60
2007,07,16,15,56,22.60
2007,07,16,15,57,22.60
2007,07,16,15,58,22.70
2007,07,16,15,59,22.80
2007,07,16,16,00,23.00
2007,07,16,16,01,23.10
2007,07,16,16,02,23.10
2007,07,16,16,03,23.10
2007,07,16,16,04,23.10
2007,07,16,16,05,23.00
2007,07,16,16,06,22.90
2007,07,16,16,07,22.90
2007,07,16,16,08,22.80
2007,07,16,16,09,22.70
2007,07,16,16,10,22.50
2007,07,16,16,11,22.40
2007,07,16,16,12,22.40
2007,07,16,16,13,22.40
2007,07,16,16,14,22.40
2007,07,16,16,15,22.40
2007,07,16,16,16,22.40
2007,07,16,16,17,22.40
2007,07,16,16,18,22.50
2007,07,16,16,19,22.50
2007,07,16,16,20,22.60
2007,07,16,16,21,22.80
2007,07,16,16,22,22.90
2007,07,16,16,23,23.00
2007,07,16,16,24,23.10
2007,07,16,16,25,23.20
2007,07,16,16,26,23.20
2007,07,16,16,27,23.10
2007,07,16,16,28,23.00
2007,07,16,16,29,22.80
2007,07,16,16,30,22.70
2007,07,16,16,31,22.60
2007,07,16,16,32,22.60
2007,07,16,16,33,22.60
2007,07,16,16,34,22.60
2007,07,16,16,35,22.70
2007,07,16,16,36,22.70
2007,07,16,16,37,22.70
2007,07,16,16,38,22.70
2007,07,16,16,39,22.70
2007,07,16,16,40,22.80
2007,07,16,16,41,22.80
2007,07,16,16,42,22.80
2007,07,16,16,43,22.90
2007,07,16,16,44,23.00
2007,07,16,16,45,23.00
2007,07,16,16,46,23.10
2007,07,16,16,47,23.20
2007,07,16,16,48,23.10
2007,07,16,16,49,23.10
2007,07,16,16,50,23.00
2007,07,16,16,51,22.90
2007,07,16,16,52,22.90
2007,07,16,16,53,22.90
2007,07,16,16,54,23.00
2007,07,16,16,55,23.00
2007,07,16,16,56,23.10
2007,07,16,16,57,23.10
2007,07,16,16,58,23.10
2007,07,16,16,59,23.20
2007,07,16,17,00,23.20
2007,07,16,17,01,23.30
2007,07,16,17,02,23.40
2007,07,16,17,03,23.40
2007,07,16,17,04,23.40
2007,07,16,17,05,23.40
2007,07,16,17,06,23.40
2007,07,16,17,07,23.30
2007,07,16,17,08,23.30
2007,07,16,17,09,23.30
2007,07,16,17,10,23.20
2007,07,16,17,11,23.20
2007,07,16,17,12,23.30
2007,07,16,17,13,23.20
2007,07,16,17,14,23.10
2007,07,16,17,15,23.00
2007,07,16,17,16,23.00
2007,07,16,17,17,22.90
2007,07,16,17,18,23.00
2007,07,16,17,19,23.00
2007,07,16,17,20,23.00
2007,07,16,17,21,23.10
2007,07,16,17,22,23.00
2007,07,16,17,23,23.00
2007,07,16,17,24,23.00
2007,07,16,17,25,22.90
2007,07,16,17,26,22.90
2007,07,16,17,27,22.90
2007,07,16,17,28,22.90
2007,07,16,17,29,22.90
2007,07,16,17,30,23.00
2007,07,16,17,31,23.00
2007,07,16,17,32,23.10
2007,07,16,17,33,23.20
2007,07,16,17,34,23.30
2007,07,16,17,35,23.40
2007,07,16,17,36,23.40
2007,07,16,17,37,23.40
2007,07,16,17,38,23.50
2007,07,16,17,39,23.50
2007,07,16,17,40,23.50
2007,07,16,17,41,23.50
2007,07,16,17,42,23.50
2007,07,16,17,43,23.60
2007,07,16,17,44,23.70
2007,07,16,17,45,23.70
2007,07,16,17,46,23.60
2007,07,16,17,47,23.60
2007,07,16,17,48,23.60
2007,07,16,17,49,23.60
2007,07,16,17,50,23.60
2007,07,16,17,51,23.60
2007,07,16,17,52,23.50
2007,07,16,17,53,23.50
2007,07,16,17,54,23.40
2007,07,16,17,55,23.40
2007,07,16,17,56,23.30
2007,07,16,17,57,23.30
2007,07,16,17,58,23.30
2007,07,16,17,59,23.20
2007,07,16,18,00,23.20
2007,07,16,18,01,23.10
2007,07,16,18,02,23.10
2007,07,16,18,03,23.00
2007,07,16,18,04,22.90
2007,07,16,18,05,22.90
2007,07,16,18,06,22.90
2007,07,16,18,07,22.90
2007,07,16,18,08,22.90
2007,07,16,18,09,22.80
2007,07,16,18,10,22.80
2007,07,16,18,11,22.80
2007,07,16,18,12,22.60
2007,07,16,18,13,22.60
2007,07,16,18,14,22.50
2007,07,16,18,15,22.50
2007,07,16,18,16,22.40
2007,07,16,18,17,22.40
2007,07,16,18,18,22.30
2007,07,16,18,19,22.30
2007,07,16,18,20,22.20
2007,07,16,18,21,22.20
2007,07,16,18,22,22.10
2007,07,16,18,23,22.10
2007,07,16,18,24,22.00
2007,07,16,18,25,21.90
2007,07,16,18,26,21.90
2007,07,16,18,27,21.90
2007,07,16,18,28,21.80
2007,07,16,18,29,21.80
2007,07,16,18,30,21.80
2007,07,16,18,31,21.80
2007,07,16,18,32,21.80
2007,07,16,18,33,21.80
2007,07,16,18,34,21.80
2007,07,16,18,35,21.80
2007,07,16,18,36,21.80
2007,07,16,18,37,21.80
2007,07,16,18,38,21.80
2007,07,16,18,39,21.90
2007,07,16,18,40,21.90
2007,07,16,18,41,21.90
2007,07,16,18,42,22.00
2007,07,16,18,43,22.00
2007,07,16,18,44,22.00
2007,07,16,18,45,22.00
2007,07,16,18,46,22.00
2007,07,16,18,47,22.00
2007,07,16,18,48,22.00
2007,07,16,18,49,21.90
2007,07,16,18,50,21.90
2007,07,16,18,51,21.90
2007,07,16,18,52,21.90
2007,07,16,18,53,21.90
2007,07,16,18,54,21.90
2007,07,16,18,55,21.90
2007,07,16,18,56,21.90
2007,07,16,18,57,21.90
2007,07,16,18,58,21.80
2007,07,16,18,59,21.80
2007,07,16,19,00,21.80